owner,sensor,date,latitude,longitude,sea_surface_height_above_sea_level,qcFlag 
TCOON,ioos:station:TCOON:003:1,2016-05-01T00:18:00Z,26.8015,-97.4706,1.571,1111122 
TCOON,ioos:station:TCOON:003:1,2016-05-01T01:18:00Z,26.8015,-97.4706,1.563,1111122 
TCOON,ioos:station:TCOON:003:1,2016-05-01T02:18:00Z,26.8015,-97.4706,1.557,1111122 
TCOON,ioos:station:TCOON:003:1,2016-05-01T03:18:00Z,26.8015,-97.4706,1.55,1111122 
TCOON,ioos:station:TCOON:003:1,2016-05-01T04:18:00Z,26.8015,-97.4706,1.55,1111122 
TCOON,ioos:station:TCOON:003:1,2016-05-01T05:18:00Z,26.8015,-97.4706,1.551,1111122 
TCOON,ioos:station:TCOON:003:1,2016-05-01T06:18:00Z,26.8015,-97.4706,1.549,1111122 
TCOON,ioos:station:TCOON:003:1,2016-05-01T07:18:00Z,26.8015,-97.4706,1.535,1111122 
TCOON,ioos:station:TCOON:003:1,2016-05-01T08:18:00Z,26.8015,-97.4706,1.516,1111122 
TCOON,ioos:station:TCOON:003:1,2016-05-01T09:18:00Z,26.8015,-97.4706,1.515,1111122 
TCOON,ioos:station:TCOON:003:1,2016-05-01T10:18:00Z,26.8015,-97.4706,1.512,1111122 
TCOON,ioos:station:TCOON:003:1,2016-05-01T11:18:00Z,26.8015,-97.4706,1.516,1111122 
TCOON,ioos:station:TCOON:003:1,2016-05-01T12:18:00Z,26.8015,-97.4706,1.53,1111122 
TCOON,ioos:station:TCOON:003:1,2016-05-01T13:18:00Z,26.8015,-97.4706,1.53,1111122 
TCOON,ioos:station:TCOON:003:1,2016-05-01T14:18:00Z,26.8015,-97.4706,1.525,1111122 
TCOON,ioos:station:TCOON:003:1,2016-05-01T15:18:00Z,26.8015,-97.4706,1.511,1111122 
TCOON,ioos:station:TCOON:003:1,2016-05-01T16:18:00Z,26.8015,-97.4706,1.503,1111122 
TCOON,ioos:station:TCOON:003:1,2016-05-01T17:18:00Z,26.8015,-97.4706,1.509,1111122 
TCOON,ioos:station:TCOON:003:1,2016-05-01T18:18:00Z,26.8015,-97.4706,1.513,1111122 
TCOON,ioos:station:TCOON:003:1,2016-05-01T19:18:00Z,26.8015,-97.4706,1.519,1111122 
TCOON,ioos:station:TCOON:003:1,2016-05-01T20:18:00Z,26.8015,-97.4706,1.514,1111122 
TCOON,ioos:station:TCOON:003:1,2016-05-01T21:18:00Z,26.8015,-97.4706,1.51,1111122 
TCOON,ioos:station:TCOON:003:1,2016-05-01T22:18:00Z,26.8015,-97.4706,1.505,1111122 
TCOON,ioos:station:TCOON:003:1,2016-05-01T23:18:00Z,26.8015,-97.4706,1.486,1111122 
TCOON,ioos:station:TCOON:003:1,2016-05-02T00:18:00Z,26.8015,-97.4706,1.499,1111122 
TCOON,ioos:station:TCOON:003:1,2016-05-02T01:18:00Z,26.8015,-97.4706,1.504,1111122 
TCOON,ioos:station:TCOON:003:1,2016-05-02T02:18:00Z,26.8015,-97.4706,1.509,1111122 
TCOON,ioos:station:TCOON:003:1,2016-05-02T03:18:00Z,26.8015,-97.4706,1.515,1111122 
TCOON,ioos:station:TCOON:003:1,2016-05-02T04:18:00Z,26.8015,-97.4706,1.512,1111122 
TCOON,ioos:station:TCOON:003:1,2016-05-02T05:18:00Z,26.8015,-97.4706,1.509,1111122 
TCOON,ioos:station:TCOON:003:1,2016-05-02T06:18:00Z,26.8015,-97.4706,1.51,1111122 
TCOON,ioos:station:TCOON:003:1,2016-05-02T07:18:00Z,26.8015,-97.4706,1.497,1111122 
TCOON,ioos:station:TCOON:003:1,2016-05-02T08:18:00Z,26.8015,-97.4706,1.5,1111122 
TCOON,ioos:station:TCOON:003:1,2016-05-02T09:18:00Z,26.8015,-97.4706,1.493,1111122 
TCOON,ioos:station:TCOON:003:1,2016-05-02T10:18:00Z,26.8015,-97.4706,1.488,1111122 
TCOON,ioos:station:TCOON:003:1,2016-05-02T11:18:00Z,26.8015,-97.4706,1.477,1111122 
TCOON,ioos:station:TCOON:003:1,2016-05-02T12:18:00Z,26.8015,-97.4706,1.479,1111122 
TCOON,ioos:station:TCOON:003:1,2016-05-02T13:18:00Z,26.8015,-97.4706,1.459,1111122 
TCOON,ioos:station:TCOON:003:1,2016-05-02T14:18:00Z,26.8015,-97.4706,1.421,1111122 
TCOON,ioos:station:TCOON:003:1,2016-05-02T15:18:00Z,26.8015,-97.4706,1.375,1111122 
TCOON,ioos:station:TCOON:003:1,2016-05-02T16:18:00Z,26.8015,-97.4706,1.342,1111122 
TCOON,ioos:station:TCOON:003:1,2016-05-02T17:18:00Z,26.8015,-97.4706,1.311,1111122 
TCOON,ioos:station:TCOON:003:1,2016-05-02T18:18:00Z,26.8015,-97.4706,1.284,1111122 
TCOON,ioos:station:TCOON:003:1,2016-05-02T19:18:00Z,26.8015,-97.4706,1.282,1111122 
TCOON,ioos:station:TCOON:003:1,2016-05-02T20:18:00Z,26.8015,-97.4706,1.258,1111122 
TCOON,ioos:station:TCOON:003:1,2016-05-02T21:18:00Z,26.8015,-97.4706,1.257,1111122 
TCOON,ioos:station:TCOON:003:1,2016-05-02T22:18:00Z,26.8015,-97.4706,1.266,1111122 
TCOON,ioos:station:TCOON:003:1,2016-05-02T23:18:00Z,26.8015,-97.4706,1.271,1111122 
TCOON,ioos:station:TCOON:003:1,2016-05-03T00:18:00Z,26.8015,-97.4706,1.284,1111122 
TCOON,ioos:station:TCOON:003:1,2016-05-03T01:18:00Z,26.8015,-97.4706,1.291,1111122 
TCOON,ioos:station:TCOON:003:1,2016-05-03T02:18:00Z,26.8015,-97.4706,1.287,1111122 
TCOON,ioos:station:TCOON:003:1,2016-05-03T03:18:00Z,26.8015,-97.4706,1.291,1111122 
TCOON,ioos:station:TCOON:003:1,2016-05-03T04:18:00Z,26.8015,-97.4706,1.286,1111122 
TCOON,ioos:station:TCOON:003:1,2016-05-03T05:18:00Z,26.8015,-97.4706,1.295,1111122 
TCOON,ioos:station:TCOON:003:1,2016-05-03T06:18:00Z,26.8015,-97.4706,1.306,1111122 
TCOON,ioos:station:TCOON:003:1,2016-05-03T07:18:00Z,26.8015,-97.4706,1.319,1111122 
TCOON,ioos:station:TCOON:003:1,2016-05-03T08:18:00Z,26.8015,-97.4706,1.324,1111122 
TCOON,ioos:station:TCOON:003:1,2016-05-03T09:18:00Z,26.8015,-97.4706,1.323,1111122 
TCOON,ioos:station:TCOON:003:1,2016-05-03T10:18:00Z,26.8015,-97.4706,1.303,1111122 
TCOON,ioos:station:TCOON:003:1,2016-05-03T11:18:00Z,26.8015,-97.4706,1.299,1111122 
TCOON,ioos:station:TCOON:003:1,2016-05-03T12:18:00Z,26.8015,-97.4706,1.301,1111122 
TCOON,ioos:station:TCOON:003:1,2016-05-03T13:18:00Z,26.8015,-97.4706,1.307,1111122 
TCOON,ioos:station:TCOON:003:1,2016-05-03T14:18:00Z,26.8015,-97.4706,1.269,1111122 
TCOON,ioos:station:TCOON:003:1,2016-05-03T15:18:00Z,26.8015,-97.4706,1.261,1111122 
TCOON,ioos:station:TCOON:003:1,2016-05-03T16:18:00Z,26.8015,-97.4706,1.289,1111122 
TCOON,ioos:station:TCOON:003:1,2016-05-03T17:18:00Z,26.8015,-97.4706,1.324,1111122 
TCOON,ioos:station:TCOON:003:1,2016-05-03T18:24:00Z,26.8015,-97.4706,1.354,1111122 
TCOON,ioos:station:TCOON:003:1,2016-05-03T19:18:00Z,26.8015,-97.4706,1.378,1111122 
TCOON,ioos:station:TCOON:003:1,2016-05-03T20:18:00Z,26.8015,-97.4706,1.396,1111122 
TCOON,ioos:station:TCOON:003:1,2016-05-03T21:18:00Z,26.8015,-97.4706,1.395,1111122 
TCOON,ioos:station:TCOON:003:1,2016-05-03T22:18:00Z,26.8015,-97.4706,1.398,1111122 
TCOON,ioos:station:TCOON:003:1,2016-05-03T23:18:00Z,26.8015,-97.4706,1.401,1111122 
TCOON,ioos:station:TCOON:003:1,2016-05-04T00:18:00Z,26.8015,-97.4706,1.404,1111122 
TCOON,ioos:station:TCOON:003:1,2016-05-04T01:18:00Z,26.8015,-97.4706,1.405,1111122 
TCOON,ioos:station:TCOON:003:1,2016-05-04T02:18:00Z,26.8015,-97.4706,1.418,1111122 
TCOON,ioos:station:TCOON:003:1,2016-05-04T03:18:00Z,26.8015,-97.4706,1.411,1111122 
TCOON,ioos:station:TCOON:003:1,2016-05-04T04:18:00Z,26.8015,-97.4706,1.411,1111122 
TCOON,ioos:station:TCOON:003:1,2016-05-04T05:18:00Z,26.8015,-97.4706,1.41,1111122 
TCOON,ioos:station:TCOON:003:1,2016-05-04T06:18:00Z,26.8015,-97.4706,1.416,1111122 
TCOON,ioos:station:TCOON:003:1,2016-05-04T07:18:00Z,26.8015,-97.4706,1.423,1111122 
TCOON,ioos:station:TCOON:003:1,2016-05-04T08:18:00Z,26.8015,-97.4706,1.418,1111122 
TCOON,ioos:station:TCOON:003:1,2016-05-04T09:18:00Z,26.8015,-97.4706,1.414,1111122 
TCOON,ioos:station:TCOON:003:1,2016-05-04T10:18:00Z,26.8015,-97.4706,1.41,1111122 
TCOON,ioos:station:TCOON:003:1,2016-05-04T11:18:00Z,26.8015,-97.4706,1.393,1111122 
TCOON,ioos:station:TCOON:003:1,2016-05-04T12:18:00Z,26.8015,-97.4706,1.384,1111122 
TCOON,ioos:station:TCOON:003:1,2016-05-04T13:18:00Z,26.8015,-97.4706,1.387,1111122 
TCOON,ioos:station:TCOON:003:1,2016-05-04T14:18:00Z,26.8015,-97.4706,1.386,1111122 
TCOON,ioos:station:TCOON:003:1,2016-05-04T15:18:00Z,26.8015,-97.4706,1.383,1111122 
TCOON,ioos:station:TCOON:003:1,2016-05-04T16:18:00Z,26.8015,-97.4706,1.378,1111122 
TCOON,ioos:station:TCOON:003:1,2016-05-04T17:18:00Z,26.8015,-97.4706,1.372,1111122 
TCOON,ioos:station:TCOON:003:1,2016-05-04T18:18:00Z,26.8015,-97.4706,1.372,1111122 
TCOON,ioos:station:TCOON:003:1,2016-05-04T19:18:00Z,26.8015,-97.4706,1.396,1111122 
TCOON,ioos:station:TCOON:003:1,2016-05-04T20:18:00Z,26.8015,-97.4706,1.42,1111122 
TCOON,ioos:station:TCOON:003:1,2016-05-04T21:18:00Z,26.8015,-97.4706,1.441,1111122 
TCOON,ioos:station:TCOON:003:1,2016-05-04T22:18:00Z,26.8015,-97.4706,1.459,1111122 
TCOON,ioos:station:TCOON:003:1,2016-05-04T23:18:00Z,26.8015,-97.4706,1.473,1111122 
TCOON,ioos:station:TCOON:003:1,2016-05-05T00:18:00Z,26.8015,-97.4706,1.487,1111122 
TCOON,ioos:station:TCOON:003:1,2016-05-05T01:18:00Z,26.8015,-97.4706,1.493,1111122 
TCOON,ioos:station:TCOON:003:1,2016-05-05T02:18:00Z,26.8015,-97.4706,1.497,1111122 
TCOON,ioos:station:TCOON:003:1,2016-05-05T03:18:00Z,26.8015,-97.4706,1.499,1111122 
TCOON,ioos:station:TCOON:003:1,2016-05-05T04:18:00Z,26.8015,-97.4706,1.494,1111122 
TCOON,ioos:station:TCOON:003:1,2016-05-05T05:18:00Z,26.8015,-97.4706,1.475,1111122 
TCOON,ioos:station:TCOON:003:1,2016-05-05T06:24:00Z,26.8015,-97.4706,1.465,1111122 
TCOON,ioos:station:TCOON:003:1,2016-05-05T07:18:00Z,26.8015,-97.4706,1.465,1111122 
TCOON,ioos:station:TCOON:003:1,2016-05-05T08:18:00Z,26.8015,-97.4706,1.465,1111122 
TCOON,ioos:station:TCOON:003:1,2016-05-05T09:18:00Z,26.8015,-97.4706,1.464,1111122 
TCOON,ioos:station:TCOON:003:1,2016-05-05T10:18:00Z,26.8015,-97.4706,1.462,1111122 
TCOON,ioos:station:TCOON:003:1,2016-05-05T11:24:00Z,26.8015,-97.4706,1.46,1111122 
TCOON,ioos:station:TCOON:003:1,2016-05-05T12:18:00Z,26.8015,-97.4706,1.463,1111122 
TCOON,ioos:station:TCOON:003:1,2016-05-05T13:18:00Z,26.8015,-97.4706,1.461,1111122 
TCOON,ioos:station:TCOON:003:1,2016-05-05T14:18:00Z,26.8015,-97.4706,1.462,1111122 
TCOON,ioos:station:TCOON:003:1,2016-05-05T15:18:00Z,26.8015,-97.4706,1.457,1111122 
TCOON,ioos:station:TCOON:003:1,2016-05-05T16:18:00Z,26.8015,-97.4706,1.453,1111122 
TCOON,ioos:station:TCOON:003:1,2016-05-05T17:18:00Z,26.8015,-97.4706,1.448,1111122 
TCOON,ioos:station:TCOON:003:1,2016-05-05T18:18:00Z,26.8015,-97.4706,1.45,1111122 
TCOON,ioos:station:TCOON:003:1,2016-05-05T19:18:00Z,26.8015,-97.4706,1.463,1111122 
TCOON,ioos:station:TCOON:003:1,2016-05-05T20:18:00Z,26.8015,-97.4706,1.473,1111122 
TCOON,ioos:station:TCOON:003:1,2016-05-05T21:18:00Z,26.8015,-97.4706,1.491,1111122 
TCOON,ioos:station:TCOON:003:1,2016-05-05T22:18:00Z,26.8015,-97.4706,1.497,1111122 
TCOON,ioos:station:TCOON:003:1,2016-05-05T23:18:00Z,26.8015,-97.4706,1.5,1111122 
TCOON,ioos:station:TCOON:003:1,2016-05-06T00:18:00Z,26.8015,-97.4706,1.507,1111122 
TCOON,ioos:station:TCOON:003:1,2016-05-06T01:18:00Z,26.8015,-97.4706,1.488,1111122 
TCOON,ioos:station:TCOON:003:1,2016-05-06T02:18:00Z,26.8015,-97.4706,1.488,1111122 
TCOON,ioos:station:TCOON:003:1,2016-05-06T03:18:00Z,26.8015,-97.4706,1.488,1111122 
TCOON,ioos:station:TCOON:003:1,2016-05-06T04:18:00Z,26.8015,-97.4706,1.481,1111122 
TCOON,ioos:station:TCOON:003:1,2016-05-06T05:18:00Z,26.8015,-97.4706,1.461,1111122 
TCOON,ioos:station:TCOON:003:1,2016-05-06T06:18:00Z,26.8015,-97.4706,1.449,1111122 
TCOON,ioos:station:TCOON:003:1,2016-05-06T07:18:00Z,26.8015,-97.4706,1.444,1111122 
TCOON,ioos:station:TCOON:003:1,2016-05-06T08:18:00Z,26.8015,-97.4706,1.442,1111122 
TCOON,ioos:station:TCOON:003:1,2016-05-06T09:18:00Z,26.8015,-97.4706,1.436,1111122 
TCOON,ioos:station:TCOON:003:1,2016-05-06T10:18:00Z,26.8015,-97.4706,1.434,1111122 
TCOON,ioos:station:TCOON:003:1,2016-05-06T11:18:00Z,26.8015,-97.4706,1.436,1111122 
TCOON,ioos:station:TCOON:003:1,2016-05-06T12:18:00Z,26.8015,-97.4706,1.437,1111122 
TCOON,ioos:station:TCOON:003:1,2016-05-06T13:18:00Z,26.8015,-97.4706,1.434,1111122 
TCOON,ioos:station:TCOON:003:1,2016-05-06T14:18:00Z,26.8015,-97.4706,1.428,1111122 
TCOON,ioos:station:TCOON:003:1,2016-05-06T15:18:00Z,26.8015,-97.4706,1.423,1111122 
TCOON,ioos:station:TCOON:003:1,2016-05-06T16:18:00Z,26.8015,-97.4706,1.428,1111122 
TCOON,ioos:station:TCOON:003:1,2016-05-06T17:18:00Z,26.8015,-97.4706,1.425,1111122 
TCOON,ioos:station:TCOON:003:1,2016-05-06T18:18:00Z,26.8015,-97.4706,1.422,1111122 
TCOON,ioos:station:TCOON:003:1,2016-05-06T19:18:00Z,26.8015,-97.4706,1.432,1111122 
TCOON,ioos:station:TCOON:003:1,2016-05-06T20:18:00Z,26.8015,-97.4706,1.446,1111122 
TCOON,ioos:station:TCOON:003:1,2016-05-06T21:18:00Z,26.8015,-97.4706,1.448,1111122 
TCOON,ioos:station:TCOON:003:1,2016-05-06T22:18:00Z,26.8015,-97.4706,1.455,1111122 
TCOON,ioos:station:TCOON:003:1,2016-05-06T23:18:00Z,26.8015,-97.4706,1.459,1111122 
TCOON,ioos:station:TCOON:003:1,2016-05-07T00:12:00Z,26.8015,-97.4706,1.463,1111122 
TCOON,ioos:station:TCOON:003:1,2016-05-07T01:18:00Z,26.8015,-97.4706,1.462,1111122 
TCOON,ioos:station:TCOON:003:1,2016-05-07T02:18:00Z,26.8015,-97.4706,1.459,1111122 
TCOON,ioos:station:TCOON:003:1,2016-05-07T03:18:00Z,26.8015,-97.4706,1.461,1111122 
TCOON,ioos:station:TCOON:003:1,2016-05-07T04:18:00Z,26.8015,-97.4706,1.462,1111122 
TCOON,ioos:station:TCOON:003:1,2016-05-07T05:18:00Z,26.8015,-97.4706,1.462,1111122 
TCOON,ioos:station:TCOON:003:1,2016-05-07T06:18:00Z,26.8015,-97.4706,1.461,1111122 
TCOON,ioos:station:TCOON:003:1,2016-05-07T07:18:00Z,26.8015,-97.4706,1.463,1111122 
TCOON,ioos:station:TCOON:003:1,2016-05-07T08:18:00Z,26.8015,-97.4706,1.467,1111122 
TCOON,ioos:station:TCOON:003:1,2016-05-07T09:18:00Z,26.8015,-97.4706,1.473,1111122 
TCOON,ioos:station:TCOON:003:1,2016-05-07T10:18:00Z,26.8015,-97.4706,1.465,1111122 
TCOON,ioos:station:TCOON:003:1,2016-05-07T11:18:00Z,26.8015,-97.4706,1.441,1111122 
TCOON,ioos:station:TCOON:003:1,2016-05-07T12:18:00Z,26.8015,-97.4706,1.432,1111122 
TCOON,ioos:station:TCOON:003:1,2016-05-07T13:18:00Z,26.8015,-97.4706,1.448,1111122 
TCOON,ioos:station:TCOON:003:1,2016-05-07T14:18:00Z,26.8015,-97.4706,1.48,1111122 
TCOON,ioos:station:TCOON:003:1,2016-05-07T15:18:00Z,26.8015,-97.4706,1.498,1111122 
TCOON,ioos:station:TCOON:003:1,2016-05-07T16:18:00Z,26.8015,-97.4706,1.509,1111122 
TCOON,ioos:station:TCOON:003:1,2016-05-07T17:18:00Z,26.8015,-97.4706,1.517,1111122 
TCOON,ioos:station:TCOON:003:1,2016-05-07T18:18:00Z,26.8015,-97.4706,1.515,1111122 
TCOON,ioos:station:TCOON:003:1,2016-05-07T19:18:00Z,26.8015,-97.4706,1.527,1111122 
TCOON,ioos:station:TCOON:003:1,2016-05-07T20:18:00Z,26.8015,-97.4706,1.547,1111122 
TCOON,ioos:station:TCOON:003:1,2016-05-07T21:18:00Z,26.8015,-97.4706,1.583,1111122 
TCOON,ioos:station:TCOON:003:1,2016-05-07T22:18:00Z,26.8015,-97.4706,1.606,1111122 
TCOON,ioos:station:TCOON:003:1,2016-05-07T23:18:00Z,26.8015,-97.4706,1.616,1111122 
TCOON,ioos:station:TCOON:003:1,2016-05-08T00:18:00Z,26.8015,-97.4706,1.62,1111122 
TCOON,ioos:station:TCOON:003:1,2016-05-08T01:18:00Z,26.8015,-97.4706,1.611,1111122 
TCOON,ioos:station:TCOON:003:1,2016-05-08T02:18:00Z,26.8015,-97.4706,1.598,1111122 
TCOON,ioos:station:TCOON:003:1,2016-05-08T03:18:00Z,26.8015,-97.4706,1.588,1111122 
TCOON,ioos:station:TCOON:003:1,2016-05-08T04:18:00Z,26.8015,-97.4706,1.581,1111122 
TCOON,ioos:station:TCOON:003:1,2016-05-08T05:18:00Z,26.8015,-97.4706,1.579,1111122 
TCOON,ioos:station:TCOON:003:1,2016-05-08T06:18:00Z,26.8015,-97.4706,1.577,1111122 
TCOON,ioos:station:TCOON:003:1,2016-05-08T07:18:00Z,26.8015,-97.4706,1.576,1111122 
TCOON,ioos:station:TCOON:003:1,2016-05-08T08:18:00Z,26.8015,-97.4706,1.582,1111122 
TCOON,ioos:station:TCOON:003:1,2016-05-08T09:18:00Z,26.8015,-97.4706,1.595,1111122 
TCOON,ioos:station:TCOON:003:1,2016-05-08T10:18:00Z,26.8015,-97.4706,1.581,1111122 
TCOON,ioos:station:TCOON:003:1,2016-05-08T11:18:00Z,26.8015,-97.4706,1.571,1111122 
TCOON,ioos:station:TCOON:003:1,2016-05-08T12:18:00Z,26.8015,-97.4706,1.585,1111122 
TCOON,ioos:station:TCOON:003:1,2016-05-08T13:18:00Z,26.8015,-97.4706,1.597,1111122 
TCOON,ioos:station:TCOON:003:1,2016-05-08T14:18:00Z,26.8015,-97.4706,1.613,1111122 
TCOON,ioos:station:TCOON:003:1,2016-05-08T15:18:00Z,26.8015,-97.4706,1.617,1111122 
TCOON,ioos:station:TCOON:003:1,2016-05-08T16:18:00Z,26.8015,-97.4706,1.621,1111122 
TCOON,ioos:station:TCOON:003:1,2016-05-08T17:18:00Z,26.8015,-97.4706,1.631,1111122 
TCOON,ioos:station:TCOON:003:1,2016-05-08T18:18:00Z,26.8015,-97.4706,1.636,1111122 
TCOON,ioos:station:TCOON:003:1,2016-05-08T19:18:00Z,26.8015,-97.4706,1.64,1111122 
TCOON,ioos:station:TCOON:003:1,2016-05-08T20:18:00Z,26.8015,-97.4706,1.673,1111122 
TCOON,ioos:station:TCOON:003:1,2016-05-08T21:18:00Z,26.8015,-97.4706,1.667,1111122 
TCOON,ioos:station:TCOON:003:1,2016-05-08T22:18:00Z,26.8015,-97.4706,1.67,1111122 
TCOON,ioos:station:TCOON:003:1,2016-05-08T23:18:00Z,26.8015,-97.4706,1.661,1111122 
TCOON,ioos:station:TCOON:003:1,2016-05-09T00:18:00Z,26.8015,-97.4706,1.656,1111122 
TCOON,ioos:station:TCOON:003:1,2016-05-09T01:18:00Z,26.8015,-97.4706,1.64,1111122 
TCOON,ioos:station:TCOON:003:1,2016-05-09T02:18:00Z,26.8015,-97.4706,1.629,1111122 
TCOON,ioos:station:TCOON:003:1,2016-05-09T03:18:00Z,26.8015,-97.4706,1.618,1111122 
TCOON,ioos:station:TCOON:003:1,2016-05-09T04:18:00Z,26.8015,-97.4706,1.605,1111122 
TCOON,ioos:station:TCOON:003:1,2016-05-09T05:18:00Z,26.8015,-97.4706,1.565,1111122 
TCOON,ioos:station:TCOON:003:1,2016-05-09T06:18:00Z,26.8015,-97.4706,1.518,1111122 
TCOON,ioos:station:TCOON:003:1,2016-05-09T07:18:00Z,26.8015,-97.4706,1.486,1111122 
TCOON,ioos:station:TCOON:003:1,2016-05-09T08:18:00Z,26.8015,-97.4706,1.478,1111122 
TCOON,ioos:station:TCOON:003:1,2016-05-09T09:18:00Z,26.8015,-97.4706,1.483,1111122 
TCOON,ioos:station:TCOON:003:1,2016-05-09T10:18:00Z,26.8015,-97.4706,1.471,1111122 
TCOON,ioos:station:TCOON:003:1,2016-05-09T11:18:00Z,26.8015,-97.4706,1.445,1111122 
TCOON,ioos:station:TCOON:003:1,2016-05-09T12:18:00Z,26.8015,-97.4706,1.428,1111122 
TCOON,ioos:station:TCOON:003:1,2016-05-09T13:18:00Z,26.8015,-97.4706,1.426,1111122 
TCOON,ioos:station:TCOON:003:1,2016-05-09T14:18:00Z,26.8015,-97.4706,1.477,1111122 
TCOON,ioos:station:TCOON:003:1,2016-05-09T15:18:00Z,26.8015,-97.4706,1.551,1111122 
TCOON,ioos:station:TCOON:003:1,2016-05-09T16:18:00Z,26.8015,-97.4706,1.574,1111122 
TCOON,ioos:station:TCOON:003:1,2016-05-09T17:18:00Z,26.8015,-97.4706,1.571,1111122 
TCOON,ioos:station:TCOON:003:1,2016-05-09T18:18:00Z,26.8015,-97.4706,1.604,1111122 
TCOON,ioos:station:TCOON:003:1,2016-05-09T19:18:00Z,26.8015,-97.4706,1.637,1111122 
TCOON,ioos:station:TCOON:003:1,2016-05-09T20:18:00Z,26.8015,-97.4706,1.661,1111122 
TCOON,ioos:station:TCOON:003:1,2016-05-09T21:18:00Z,26.8015,-97.4706,1.663,1111122 
TCOON,ioos:station:TCOON:003:1,2016-05-09T22:18:00Z,26.8015,-97.4706,1.672,1111122 
TCOON,ioos:station:TCOON:003:1,2016-05-09T23:18:00Z,26.8015,-97.4706,1.678,1111122 
TCOON,ioos:station:TCOON:003:1,2016-05-10T00:18:00Z,26.8015,-97.4706,1.676,1111122 
TCOON,ioos:station:TCOON:003:1,2016-05-10T01:18:00Z,26.8015,-97.4706,1.655,1111122 
TCOON,ioos:station:TCOON:003:1,2016-05-10T02:18:00Z,26.8015,-97.4706,1.624,1111122 
TCOON,ioos:station:TCOON:003:1,2016-05-10T03:18:00Z,26.8015,-97.4706,1.6,1111122 
TCOON,ioos:station:TCOON:003:1,2016-05-10T04:18:00Z,26.8015,-97.4706,1.575,1111122 
TCOON,ioos:station:TCOON:003:1,2016-05-10T05:18:00Z,26.8015,-97.4706,1.556,1111122 
TCOON,ioos:station:TCOON:003:1,2016-05-10T06:18:00Z,26.8015,-97.4706,1.532,1111122 
TCOON,ioos:station:TCOON:003:1,2016-05-10T07:18:00Z,26.8015,-97.4706,1.51,1111122 
TCOON,ioos:station:TCOON:003:1,2016-05-10T08:18:00Z,26.8015,-97.4706,1.484,1111122 
TCOON,ioos:station:TCOON:003:1,2016-05-10T09:18:00Z,26.8015,-97.4706,1.468,1111122 
TCOON,ioos:station:TCOON:003:1,2016-05-10T10:18:00Z,26.8015,-97.4706,1.455,1111122 
TCOON,ioos:station:TCOON:003:1,2016-05-10T11:18:00Z,26.8015,-97.4706,1.449,1111122 
TCOON,ioos:station:TCOON:003:1,2016-05-10T12:18:00Z,26.8015,-97.4706,1.452,1111122 
TCOON,ioos:station:TCOON:003:1,2016-05-10T13:18:00Z,26.8015,-97.4706,1.459,1111122 
TCOON,ioos:station:TCOON:003:1,2016-05-10T14:18:00Z,26.8015,-97.4706,1.469,1111122 
TCOON,ioos:station:TCOON:003:1,2016-05-10T15:18:00Z,26.8015,-97.4706,1.486,1111122 
TCOON,ioos:station:TCOON:003:1,2016-05-10T16:18:00Z,26.8015,-97.4706,1.516,1111122 
TCOON,ioos:station:TCOON:003:1,2016-05-10T17:18:00Z,26.8015,-97.4706,1.537,1111122 
TCOON,ioos:station:TCOON:003:1,2016-05-10T18:18:00Z,26.8015,-97.4706,1.549,1111122 
TCOON,ioos:station:TCOON:003:1,2016-05-10T19:18:00Z,26.8015,-97.4706,1.571,1111122 
TCOON,ioos:station:TCOON:003:1,2016-05-10T20:18:00Z,26.8015,-97.4706,1.589,1111122 
TCOON,ioos:station:TCOON:003:1,2016-05-10T21:18:00Z,26.8015,-97.4706,1.605,1111122 
TCOON,ioos:station:TCOON:003:1,2016-05-10T22:18:00Z,26.8015,-97.4706,1.624,1111122 
TCOON,ioos:station:TCOON:003:1,2016-05-10T23:18:00Z,26.8015,-97.4706,1.64,1111122 
TCOON,ioos:station:TCOON:003:1,2016-05-11T00:18:00Z,26.8015,-97.4706,1.648,1111122 
TCOON,ioos:station:TCOON:003:1,2016-05-11T01:18:00Z,26.8015,-97.4706,1.654,1111122 
TCOON,ioos:station:TCOON:003:1,2016-05-11T02:24:00Z,26.8015,-97.4706,1.642,1111122 
TCOON,ioos:station:TCOON:003:1,2016-05-11T03:24:00Z,26.8015,-97.4706,1.638,1111122 
TCOON,ioos:station:TCOON:003:1,2016-05-11T04:18:00Z,26.8015,-97.4706,1.634,1111122 
TCOON,ioos:station:TCOON:003:1,2016-05-11T05:18:00Z,26.8015,-97.4706,1.646,1111122 
TCOON,ioos:station:TCOON:003:1,2016-05-11T06:18:00Z,26.8015,-97.4706,1.65,1111122 
TCOON,ioos:station:TCOON:003:1,2016-05-11T07:18:00Z,26.8015,-97.4706,1.644,1111122 
TCOON,ioos:station:TCOON:003:1,2016-05-11T08:18:00Z,26.8015,-97.4706,1.634,1111122 
TCOON,ioos:station:TCOON:003:1,2016-05-11T09:18:00Z,26.8015,-97.4706,1.619,1111122 
TCOON,ioos:station:TCOON:003:1,2016-05-11T10:18:00Z,26.8015,-97.4706,1.602,1111122 
TCOON,ioos:station:TCOON:003:1,2016-05-11T11:18:00Z,26.8015,-97.4706,1.594,1111122 
TCOON,ioos:station:TCOON:003:1,2016-05-11T19:42:00Z,26.8015,-97.4706,1.556,1111122 
TCOON,ioos:station:TCOON:003:1,2016-05-11T20:30:00Z,26.8015,-97.4706,1.571,1111122 
TCOON,ioos:station:TCOON:003:1,2016-05-11T21:18:00Z,26.8015,-97.4706,1.576,1111122 
TCOON,ioos:station:TCOON:003:1,2016-05-11T22:18:00Z,26.8015,-97.4706,1.579,1111122 
TCOON,ioos:station:TCOON:003:1,2016-05-11T23:18:00Z,26.8015,-97.4706,1.573,1111122 
TCOON,ioos:station:TCOON:003:1,2016-05-12T00:18:00Z,26.8015,-97.4706,1.567,1111122 
TCOON,ioos:station:TCOON:003:1,2016-05-12T01:18:00Z,26.8015,-97.4706,1.555,1111122 
TCOON,ioos:station:TCOON:003:1,2016-05-12T02:18:00Z,26.8015,-97.4706,1.544,1111122 
TCOON,ioos:station:TCOON:003:1,2016-05-12T03:18:00Z,26.8015,-97.4706,1.536,1111122 
TCOON,ioos:station:TCOON:003:1,2016-05-12T04:18:00Z,26.8015,-97.4706,1.531,1111122 
TCOON,ioos:station:TCOON:003:1,2016-05-12T05:18:00Z,26.8015,-97.4706,1.537,1111122 
TCOON,ioos:station:TCOON:003:1,2016-05-12T06:18:00Z,26.8015,-97.4706,1.548,1111122 
TCOON,ioos:station:TCOON:003:1,2016-05-12T07:18:00Z,26.8015,-97.4706,1.548,1111122 
TCOON,ioos:station:TCOON:003:1,2016-05-12T08:18:00Z,26.8015,-97.4706,1.537,1111122 
TCOON,ioos:station:TCOON:003:1,2016-05-12T09:18:00Z,26.8015,-97.4706,1.524,1111122 
TCOON,ioos:station:TCOON:003:1,2016-05-12T10:18:00Z,26.8015,-97.4706,1.517,1111122 
TCOON,ioos:station:TCOON:003:1,2016-05-12T11:18:00Z,26.8015,-97.4706,1.514,1111122 
TCOON,ioos:station:TCOON:003:1,2016-05-12T12:18:00Z,26.8015,-97.4706,1.508,1111122 
TCOON,ioos:station:TCOON:003:1,2016-05-12T13:18:00Z,26.8015,-97.4706,1.499,1111122 
TCOON,ioos:station:TCOON:003:1,2016-05-12T14:18:00Z,26.8015,-97.4706,1.488,1111122 
TCOON,ioos:station:TCOON:003:1,2016-05-12T15:18:00Z,26.8015,-97.4706,1.485,1111122 
TCOON,ioos:station:TCOON:003:1,2016-05-12T16:18:00Z,26.8015,-97.4706,1.478,1111122 
TCOON,ioos:station:TCOON:003:1,2016-05-12T17:18:00Z,26.8015,-97.4706,1.481,1111122 
TCOON,ioos:station:TCOON:003:1,2016-05-12T18:18:00Z,26.8015,-97.4706,1.467,1111122 
TCOON,ioos:station:TCOON:003:1,2016-05-12T19:18:00Z,26.8015,-97.4706,1.454,1111122 
TCOON,ioos:station:TCOON:003:1,2016-05-12T20:18:00Z,26.8015,-97.4706,1.45,1111122 
TCOON,ioos:station:TCOON:003:1,2016-05-12T21:18:00Z,26.8015,-97.4706,1.445,1111122 
TCOON,ioos:station:TCOON:003:1,2016-05-12T22:18:00Z,26.8015,-97.4706,1.434,1111122 
TCOON,ioos:station:TCOON:003:1,2016-05-12T23:18:00Z,26.8015,-97.4706,1.411,1111122 
TCOON,ioos:station:TCOON:003:1,2016-05-13T00:18:00Z,26.8015,-97.4706,1.403,1111122 
TCOON,ioos:station:TCOON:003:1,2016-05-13T01:18:00Z,26.8015,-97.4706,1.406,1111122 
TCOON,ioos:station:TCOON:003:1,2016-05-13T02:18:00Z,26.8015,-97.4706,1.414,1111122 
TCOON,ioos:station:TCOON:003:1,2016-05-13T03:18:00Z,26.8015,-97.4706,1.41,1111122 